APSTAR 6D

导读

APSTAR 6D(亚太6D)是中国研制的高通量地球静止轨道通信卫星,于北京时间2020年7月9日成功发射。卫星面向亚太区域提供宽带通信服务,可支持机载、船载、远洋作业等场景通信,支撑应急救援、偏远地区联网。近年依托它的稳定性能,已成功完成远程机器人手术,为天地一体化通信网络建设奠定重要基础。

Basic Information
目录编号:
45863
目录名称:
APSTAR 6D
国际标识:
2020-045A
轨道中心:
EARTH
卫星名称:
APSTAR 6D
卫星全名:
--
卫星状态:
在轨 (已飞行2265 天)
发射日期:
2020-07-09 UTC
国别 :
中国 (CN)
星等 :
--
This satellite is enrolled in the Space Conjunction Data Service (SCDS) and the current flight risk assessment level is: No High Risk
Orbit Information
数据来源 国际轨道数据 AOE轨道数据
星历时间 2026-09-21T15:14:34+0800
5小时前
查看轨道信息
2026-09-21T02:00:00+0800
18小时前
查看轨道信息
半长轴 42165.065km 42164.532km
偏心率 0.0002644 0.0002323
轨道倾角 0.041° 0.044°
近地点辐角 345.745° 344.879°
升交点赤经 105.432° 103.865°
平近点角 151.697° 314.949°
近地点 35775.779km 35776.6km
远地点 35798.077km 35796.19km
周期 1436.114分钟 1436.087分钟
每日圈数 1.002706 1.002725
Detailed Information
使用方式:
暂无
2D Orbit Map
3D Orbit Map
Orbit Altitude Analysis Chart
Orbit Inclination Analysis Chart
Orbit Comprehensive Analysis Chart
View Comprehensive Chart
Miss Distance Evolution Trend with All Objects Subscribe to Flight Safety Assessment
Collision Probability Evolution Trend with All Objects Subscribe to Flight Safety Assessment